Date String (YYYY-MM-DD hh:mm:ss) UTC,Instrument flags,Ambient pressure (hPa),Sample flow (lpm),Bypass flow (lpm),Sample temperature (°C),Ambient temperature (°C),ASC tube jacket temperature (°C),LED temperature (°C),Box temperature (°C),Sample RH (%),Span deviation,Mass concentration (μg/m³),Mass concentration (μg/m³),Mass concentration (μg/m³)
DateTimeUTC,F1_M11,P_M11,Q1_M11,Q2_M11,T1_M11,T2_M11,T3_M11,T4_M11,T5_M11,U1_M11,ZSPAN_M11,X2_M11,X0_M11,X1_M11
2023-04-25 14:00:00,,0823.3,5.00,0.00,25.6,24.1,00.0,33.9,27.2,22.7,0000.0,0003.84,0007.11,0003.29
2023-04-25 14:01:00,,0823.3,5.00,0.00,25.6,24.1,00.0,33.9,27.1,22.5,0000.0,0003.83,0007.01,0003.29
2023-04-25 14:02:00,,0823.3,4.99,0.00,25.6,24.1,00.0,33.9,27.2,22.5,0000.0,0003.85,0007.19,0003.29
2023-04-25 14:03:00,,0823.3,5.00,0.00,25.6,24.1,00.0,33.9,27.1,23.1,0000.0,0003.84,0007.08,0003.29
2023-04-25 14:04:00,,0823.4,5.00,0.00,25.6,24.1,00.0,33.9,27.1,22.8,0000.0,0003.80,0006.76,0003.29
2023-04-25 14:05:00,,0823.4,4.99,0.00,25.6,24.1,00.0,33.9,27.1,23.1,0000.0,0003.76,0006.46,0003.29
2023-04-25 14:06:00,,0823.4,5.00,0.00,25.6,24.1,00.0,33.9,27.1,23.2,0000.0,0003.71,0006.15,0003.29
2023-04-25 14:07:00,,0823.4,4.99,0.00,25.6,24.1,00.0,33.9,27.1,23.3,0000.0,0003.71,0006.42,0003.29
2023-04-25 14:08:00,,0823.4,5.01,0.00,25.6,24.1,00.0,33.9,27.1,23.6,0000.0,0003.70,0007.24,0003.28
2023-04-25 14:09:00,,0823.4,5.01,0.00,25.6,24.1,00.0,33.9,27.2,23.1,0000.0,0003.66,0007.13,0003.27
2023-04-25 14:10:00,,0823.4,5.00,0.00,25.7,24.1,00.0,33.9,27.2,22.8,0000.0,0003.63,0007.00,0003.26
2023-04-25 14:11:00,,0823.4,5.00,0.00,25.7,24.2,00.0,34.0,27.2,22.5,0000.0,0003.60,0006.93,0003.25
2023-04-25 14:12:00,,0823.4,4.99,0.00,25.7,24.2,00.0,34.0,27.2,22.9,0000.0,0003.59,0007.06,0003.25
2023-04-25 14:13:00,,0823.3,4.99,0.00,25.7,24.2,00.0,34.0,27.2,23.7,0000.0,0003.57,0006.88,0003.24
2023-04-25 14:14:00,,0823.3,4.99,0.00,25.7,24.2,00.0,34.0,27.2,25.3,0000.0,0003.62,0006.97,0003.26
2023-04-25 14:15:00,,0823.3,5.00,0.00,25.7,24.2,00.0,34.0,27.2,25.9,0000.0,0003.67,0007.14,0003.28
2023-04-25 14:16:00,,0823.4,5.00,0.00,25.7,24.2,00.0,34.0,27.3,25.4,0000.0,0003.69,0007.13,0003.30
2023-04-25 14:17:00,,0823.4,5.01,0.00,25.7,24.2,00.0,34.0,27.3,24.8,0000.0,0003.71,0007.16,0003.32
2023-04-25 14:18:00,,0823.4,5.01,0.00,25.7,24.2,00.0,34.0,27.2,24.0,0000.0,0003.75,0007.25,0003.32
2023-04-25 14:19:00,,0823.4,5.01,0.00,25.7,24.2,00.0,34.0,27.2,24.5,0000.0,0003.77,0006.56,0003.33
2023-04-25 14:20:00,,0823.4,5.00,0.00,25.7,24.2,00.0,34.0,27.3,25.6,0000.0,0003.81,0006.87,0003.36
2023-04-25 14:21:00,,0823.4,5.00,0.00,25.7,24.2,00.0,34.0,27.2,26.7,0000.0,0003.86,0007.05,0003.40
2023-04-25 14:22:00,,0823.4,5.00,0.00,25.7,24.2,00.0,34.0,27.2,25.5,0000.0,0003.90,0007.13,0003.43
2023-04-25 14:23:00,,0823.4,5.00,0.00,25.7,24.2,00.0,34.0,27.3,25.9,0000.0,0003.94,0007.07,0003.46
2023-04-25 14:24:00,,0823.4,5.00,0.00,25.7,24.2,00.0,34.0,27.3,25.9,0000.0,0004.00,0007.50,0003.49
2023-04-25 14:25:00,,0823.4,5.00,0.00,25.7,24.2,00.0,34.0,27.3,25.8,0000.0,0004.00,0007.73,0003.49
2023-04-25 14:26:00,,0823.4,5.00,0.00,25.8,24.3,00.0,34.1,27.3,26.1,0000.0,0003.98,0007.72,0003.50
2023-04-25 14:27:00,,0823.4,5.00,0.00,25.8,24.3,00.0,34.1,27.4,25.6,0000.0,0004.02,0007.80,0003.51
2023-04-25 14:28:00,,0823.5,5.01,0.00,25.8,24.3,00.0,34.1,27.4,24.5,0000.0,0004.13,0008.20,0003.58
2023-04-25 14:29:00,,0823.5,5.01,0.00,25.8,24.3,00.0,34.1,27.3,24.9,0000.0,0004.19,0008.33,0003.65
2023-04-25 14:30:00,,0823.5,4.99,0.00,25.8,24.3,00.0,34.1,27.3,24.9,0000.0,0004.29,0008.34,0003.73
2023-04-25 14:31:00,,0823.5,5.00,0.00,25.8,24.3,00.0,34.1,27.3,24.7,0000.0,0004.38,0008.21,0003.81
2023-04-25 14:32:00,,0823.5,5.02,0.00,25.8,24.2,00.0,34.1,27.3,24.8,0000.0,0004.47,0008.33,0003.87
2023-04-25 14:33:00,,0823.5,5.01,0.00,25.7,24.2,00.0,34.1,27.3,25.3,0000.0,0004.56,0008.42,0003.95
2023-04-25 14:34:00,,0823.5,5.00,0.00,25.8,24.2,00.0,34.1,27.3,25.3,0000.0,0004.63,0008.47,0004.02
2023-04-25 14:35:00,,0823.5,5.00,0.00,25.7,24.2,00.0,34.1,27.3,25.2,0000.0,0004.68,0008.41,0004.09
2023-04-25 14:36:00,,0823.5,4.99,0.00,25.7,24.2,00.0,34.1,27.3,25.0,0000.0,0004.77,0008.25,0004.16
2023-04-25 14:37:00,,0823.5,5.00,0.00,25.8,24.2,00.0,34.1,27.3,25.0,0000.0,0004.90,0008.45,0004.25
2023-04-25 14:38:00,,0823.4,5.01,0.00,25.7,24.2,00.0,34.1,27.4,24.9,0000.0,0005.12,0008.90,0004.39
2023-04-25 14:39:00,,0823.5,5.00,0.00,25.8,24.2,00.0,34.1,27.3,24.9,0000.0,0005.22,0009.06,0004.46
2023-04-25 14:40:00,,0823.6,5.00,0.00,25.8,24.2,00.0,34.1,27.3,24.9,0000.0,0005.33,0009.08,0004.52
2023-04-25 14:41:00,,0823.6,5.00,0.00,25.8,24.2,00.0,34.1,27.3,24.7,0000.0,0005.49,0009.37,0004.58
2023-04-25 14:42:00,,0823.5,5.00,0.00,25.8,24.2,00.0,34.1,27.3,24.7,0000.0,0005.57,0009.68,0004.63
2023-04-25 14:43:00,,0823.6,4.99,0.00,25.8,24.2,00.0,34.1,27.3,24.2,0000.0,0005.59,0010.43,0004.66
2023-04-25 14:44:00,,0823.5,5.00,0.00,25.8,24.2,00.0,34.1,27.3,24.2,0000.0,0005.67,0010.59,0004.71
2023-04-25 14:45:00,,0823.5,4.99,0.00,25.8,24.3,00.0,34.1,27.4,24.8,-000.6,0005.79,0010.85,0004.77
2023-04-25 14:46:00,,0823.5,5.00,0.00,25.8,24.2,00.0,34.1,27.3,24.8,-000.6,0005.88,0011.04,0004.82
2023-04-25 14:47:00,,0823.6,4.99,0.00,25.8,24.2,00.0,34.1,27.3,24.8,0000.0,0005.95,0011.08,0004.86
2023-04-25 14:48:00,,0823.6,5.00,0.00,25.8,24.3,00.0,34.1,27.3,24.4,-000.0,0005.99,0011.36,0004.91
2023-04-25 14:49:00,,0823.6,5.01,0.00,25.8,24.3,00.0,34.1,27.4,24.1,-000.3,0005.94,0011.72,0004.90
2023-04-25 14:50:00,,0823.5,5.01,0.00,25.8,24.3,00.0,34.1,27.4,24.5,-000.6,0005.87,0011.64,0004.87
2023-04-25 14:51:00,,0823.5,5.00,0.00,25.8,24.3,00.0,34.1,27.3,25.0,-001.8,0005.82,0011.58,0004.85
2023-04-25 14:52:00,,0823.5,5.00,0.00,25.8,24.3,00.0,34.1,27.4,24.9,0000.0,0005.71,0011.47,0004.81
2023-04-25 14:53:00,,0823.5,5.00,0.00,25.8,24.3,00.0,34.1,27.4,25.1,0000.0,0005.63,0011.29,0004.77
2023-04-25 14:54:00,,0823.6,4.99,0.00,25.8,24.3,00.0,34.1,27.4,25.4,0000.0,0005.67,0010.63,0004.76
2023-04-25 14:55:00,,0823.6,5.00,0.00,25.8,24.3,00.0,34.2,27.4,25.1,0000.0,0005.65,0010.47,0004.75
2023-04-25 14:56:00,,0823.5,5.00,0.00,25.8,24.4,00.0,34.2,27.4,24.6,0000.0,0005.61,0010.38,0004.73
2023-04-25 14:57:00,,0823.5,5.01,0.00,25.8,24.4,00.0,34.2,27.4,24.8,0000.0,0005.57,0010.52,0004.71
2023-04-25 14:58:00,,0823.5,5.00,0.00,25.9,24.4,00.0,34.2,27.4,24.4,0000.0,0005.59,0011.29,0004.72
2023-04-25 14:59:00,,0823.5,5.00,0.00,25.9,24.4,00.0,34.2,27.4,25.0,0000.0,0005.63,0011.14,0004.73
